date,time,SUV Intensity [MED/Hr],UV Index,Daily total [MED],Since Last [MED]
08/06/2022,00:10:00,0.001,0.0,0.0,0.0
08/06/2022,00:12:00,-0.001,0.0,0.0,0.0
08/06/2022,00:14:00,-0.001,0.0,0.0,0.0
08/06/2022,00:15:51,0.000,0.0,0.0,0.0
08/06/2022,00:18:02,-0.000,0.0,0.0,0.0
08/06/2022,00:20:00,-0.000,0.0,0.0,0.0
08/06/2022,00:22:00,-0.001,0.0,0.0,0.0
08/06/2022,00:24:00,-0.001,0.0,0.0,0.0
08/06/2022,00:26:13,-0.000,0.0,0.0,0.0
08/06/2022,00:28:00,0.001,0.0,0.0,0.0
08/06/2022,00:30:00,-0.001,0.0,0.0,0.0
08/06/2022,00:32:08,0.000,0.0,0.0,0.0
08/06/2022,00:34:00,0.000,0.0,0.0,0.0
08/06/2022,00:36:00,0.000,0.0,0.0,0.0
08/06/2022,00:38:00,-0.001,0.0,0.0,0.0
08/06/2022,00:40:00,0.001,0.0,0.0,0.0
08/06/2022,00:42:00,-0.001,0.0,0.0,0.0
08/06/2022,00:44:08,0.000,0.0,0.0,0.0
08/06/2022,00:46:00,0.000,0.0,0.0,0.0
08/06/2022,00:48:00,0.000,0.0,0.0,0.0
08/06/2022,00:50:00,0.000,0.0,0.0,0.0
08/06/2022,00:52:00,-0.000,0.0,0.0,0.0
08/06/2022,00:54:00,0.001,0.0,0.0,0.0
08/06/2022,00:56:00,0.000,0.0,0.0,0.0
08/06/2022,00:58:00,0.000,0.0,0.0,0.0
08/06/2022,01:00:00,-0.001,0.0,0.0,0.0
08/06/2022,01:02:00,0.001,0.0,0.0,0.0
08/06/2022,01:04:00,-0.001,0.0,0.0,0.0
08/06/2022,01:06:00,-0.001,0.0,0.0,0.0
08/06/2022,01:08:00,0.000,0.0,0.0,0.0
08/06/2022,01:10:00,-0.001,0.0,0.0,0.0
08/06/2022,01:12:08,0.000,0.0,0.0,0.0
08/06/2022,01:14:00,0.000,0.0,0.0,0.0
08/06/2022,01:16:00,0.000,0.0,0.0,0.0
08/06/2022,01:18:00,0.000,0.0,0.0,0.0
08/06/2022,01:20:00,0.000,0.0,0.0,0.0
08/06/2022,01:22:00,0.001,0.0,0.0,0.0
08/06/2022,01:25:01,0.000,0.0,0.0,0.0
08/06/2022,01:27:00,0.000,0.0,0.0,0.0
08/06/2022,01:29:01,0.000,0.0,0.0,0.0
08/06/2022,01:31:01,0.001,0.0,0.0,0.0
08/06/2022,01:33:00,0.001,0.0,0.0,0.0
08/06/2022,01:35:00,0.000,0.0,0.0,0.0
08/06/2022,01:37:00,-0.000,0.0,0.0,0.0
08/06/2022,01:39:01,0.000,0.0,0.0,0.0
08/06/2022,01:41:00,-0.000,0.0,0.0,0.0
08/06/2022,01:43:00,0.000,0.0,0.0,0.0
08/06/2022,01:45:00,0.001,0.0,0.0,0.0
08/06/2022,01:47:00,-0.001,0.0,0.0,0.0
08/06/2022,01:49:00,0.001,0.0,0.0,0.0
08/06/2022,01:51:00,0.000,0.0,0.0,0.0
08/06/2022,01:53:00,-0.000,0.0,0.0,0.0
08/06/2022,01:55:00,0.000,0.0,0.0,0.0
08/06/2022,01:57:01,0.000,0.0,0.0,0.0
08/06/2022,01:59:01,-0.001,0.0,0.0,0.0
08/06/2022,02:01:00,0.000,0.0,0.0,0.0
08/06/2022,02:03:00,-0.001,0.0,0.0,0.0
08/06/2022,02:05:00,0.000,0.0,0.0,0.0
08/06/2022,02:07:00,0.001,0.0,0.0,0.0
08/06/2022,02:09:01,0.001,0.0,0.0,0.0
08/06/2022,02:11:00,0.000,0.0,0.0,0.0
08/06/2022,02:13:01,-0.001,0.0,0.0,0.0
08/06/2022,02:15:00,0.000,0.0,0.0,0.0
08/06/2022,02:17:00,-0.001,0.0,0.0,0.0
08/06/2022,02:19:00,0.000,0.0,0.0,0.0
08/06/2022,02:21:00,0.000,0.0,0.0,0.0
08/06/2022,02:23:01,0.001,0.0,0.0,0.0
08/06/2022,02:25:00,0.000,0.0,0.0,0.0
08/06/2022,02:27:00,0.000,0.0,0.0,0.0
08/06/2022,02:29:00,0.000,0.0,0.0,0.0
08/06/2022,02:31:01,0.001,0.0,0.0,0.0
08/06/2022,02:33:02,0.000,0.0,0.0,0.0
08/06/2022,02:35:00,0.000,0.0,0.0,0.0
08/06/2022,02:37:01,0.000,0.0,0.0,0.0
08/06/2022,02:39:08,-0.000,0.0,0.0,0.0
08/06/2022,02:41:00,-0.001,0.0,0.0,0.0
08/06/2022,02:43:00,0.001,0.0,0.0,0.0
08/06/2022,02:45:00,0.000,0.0,0.0,0.0
08/06/2022,02:47:00,0.001,0.0,0.0,0.0
08/06/2022,02:49:01,-0.000,0.0,0.0,0.0
08/06/2022,02:51:00,0.001,0.0,0.0,0.0
08/06/2022,02:53:01,0.001,0.0,0.0,0.0
08/06/2022,02:55:01,0.000,0.0,0.0,0.0
08/06/2022,02:57:00,0.000,0.0,0.0,0.0
08/06/2022,02:59:01,0.000,0.0,0.0,0.0
08/06/2022,03:01:00,0.000,0.0,0.0,0.0
08/06/2022,03:03:00,0.000,0.0,0.0,0.0
08/06/2022,03:05:01,0.000,0.0,0.0,0.0
08/06/2022,03:07:01,0.001,0.0,0.0,0.0
08/06/2022,03:09:00,0.000,0.0,0.0,0.0
08/06/2022,03:11:01,-0.001,0.0,0.0,0.0
08/06/2022,03:13:00,0.000,0.0,0.0,0.0
08/06/2022,03:15:00,0.000,0.0,0.0,0.0
08/06/2022,03:17:03,-0.001,0.0,0.0,0.0
08/06/2022,03:19:00,0.001,0.0,0.0,0.0
08/06/2022,03:21:00,0.001,0.0,0.0,0.0
08/06/2022,03:23:00,0.001,0.0,0.0,0.0
08/06/2022,03:25:00,0.000,0.0,0.0,0.0
08/06/2022,03:27:00,0.001,0.0,0.0,0.0
08/06/2022,03:29:00,0.000,0.0,0.0,0.0
08/06/2022,03:31:09,0.000,0.0,0.0,0.0
08/06/2022,03:33:01,0.000,0.0,0.0,0.0
08/06/2022,03:35:00,0.000,0.0,0.0,0.0
08/06/2022,03:37:00,0.001,0.0,0.0,0.0
08/06/2022,03:39:01,0.001,0.0,0.0,0.0
08/06/2022,03:41:00,0.000,0.0,0.0,0.0
08/06/2022,03:43:00,0.002,0.0,0.0,0.0
08/06/2022,03:45:01,0.001,0.0,0.0,0.0
08/06/2022,03:47:00,0.001,0.0,0.0,0.0
08/06/2022,03:49:09,0.001,0.0,0.0,0.0
08/06/2022,03:51:01,0.001,0.0,0.0,0.0
08/06/2022,03:53:00,0.002,0.0,0.0,0.0
08/06/2022,03:55:00,0.002,0.0,0.0,0.0
08/06/2022,03:57:01,0.002,0.0,0.0,0.0
08/06/2022,03:59:09,0.003,0.0,0.0,0.0
08/06/2022,04:01:00,0.002,0.0,0.0,0.0
08/06/2022,04:03:01,0.002,0.0,0.0,0.0
08/06/2022,04:05:01,0.003,0.0,0.0,0.0
08/06/2022,04:07:01,0.002,0.0,0.0,0.0
08/06/2022,04:09:01,0.002,0.0,0.0,0.0
08/06/2022,04:11:00,0.004,0.0,0.0,0.0
08/06/2022,04:13:01,0.005,0.0,0.0,0.0
08/06/2022,04:15:01,0.006,0.0,0.0,0.0
08/06/2022,04:17:00,0.006,0.0,0.0,0.0
08/06/2022,04:19:00,0.006,0.0,0.0,0.0
08/06/2022,04:21:01,0.007,0.0,0.001,0.001
08/06/2022,04:23:00,0.007,0.0,0.001,0.0
08/06/2022,04:25:01,0.006,0.0,0.001,0.0
08/06/2022,04:27:01,0.005,0.0,0.001,0.0
08/06/2022,04:29:00,0.006,0.0,0.001,0.0
08/06/2022,04:31:01,0.007,0.0,0.001,0.0
08/06/2022,04:33:00,0.010,0.0,0.002,0.001
08/06/2022,04:35:00,0.010,0.0,0.002,0.0
08/06/2022,04:37:00,0.010,0.0,0.002,0.0
08/06/2022,04:39:00,0.010,0.0,0.003,0.001
08/06/2022,04:41:00,0.013,0.0,0.003,0.0
08/06/2022,04:43:00,0.013,0.0,0.003,0.0
08/06/2022,04:45:01,0.015,0.0,0.004,0.001
08/06/2022,04:47:00,0.016,0.0,0.004,0.0
08/06/2022,04:49:00,0.018,0.0,0.005,0.001
08/06/2022,04:51:00,0.020,0.0,0.006,0.001
08/06/2022,04:53:00,0.021,0.0,0.006,0.0
08/06/2022,04:55:09,0.025,0.0,0.007,0.001
08/06/2022,04:57:01,0.027,0.0,0.008,0.001
08/06/2022,04:59:01,0.028,0.0,0.009,0.001
08/06/2022,05:01:00,0.030,0.0,0.01,0.001
08/06/2022,05:03:02,0.031,0.0,0.011,0.001
08/06/2022,05:05:00,0.034,0.0,0.012,0.001
08/06/2022,05:07:01,0.035,0.0,0.013,0.001
08/06/2022,05:09:01,0.038,0.0,0.014,0.001
08/06/2022,05:11:02,0.040,0.0,0.016,0.002
08/06/2022,05:13:00,0.042,0.0,0.017,0.001
08/06/2022,05:15:01,0.044,0.0,0.018,0.001
08/06/2022,05:17:00,0.047,0.0,0.02,0.002
08/06/2022,05:19:00,0.049,0.0,0.021,0.001
08/06/2022,05:21:01,0.052,0.0,0.023,0.002
08/06/2022,05:23:02,0.054,0.0,0.025,0.002
08/06/2022,05:25:01,0.057,0.0,0.027,0.002
08/06/2022,05:27:01,0.060,0.0,0.029,0.002
08/06/2022,05:29:09,0.063,0.0,0.031,0.002
08/06/2022,05:31:01,0.066,0.0,0.033,0.002
08/06/2022,05:33:00,0.068,0.0,0.035,0.002
08/06/2022,05:35:01,0.071,0.0,0.037,0.002
08/06/2022,05:37:00,0.074,0.0,0.04,0.003
08/06/2022,05:39:17,0.076,0.0,0.043,0.003
08/06/2022,05:41:00,0.073,0.0,0.045,0.002
08/06/2022,05:43:00,0.072,0.0,0.047,0.002
08/06/2022,05:45:01,0.079,0.0,0.05,0.003
08/06/2022,05:47:01,0.090,0.0,0.053,0.003
08/06/2022,05:49:00,0.094,0.0,0.056,0.003
08/06/2022,05:51:10,0.100,0.0,0.059,0.003
08/06/2022,05:53:01,0.105,0.0,0.062,0.003
08/06/2022,05:55:01,0.104,0.0,0.066,0.004
08/06/2022,05:57:00,0.110,0.0,0.07,0.004
08/06/2022,05:59:00,0.122,0.0,0.073,0.003
08/06/2022,06:01:09,0.125,0.0,0.078,0.005
08/06/2022,06:03:00,0.125,0.0,0.082,0.004
08/06/2022,06:05:04,0.138,0.0,0.086,0.004
08/06/2022,06:07:00,0.143,0.0,0.091,0.005
08/06/2022,06:09:01,0.148,0.0,0.095,0.004
08/06/2022,06:11:01,0.150,0.0,0.1,0.005
08/06/2022,06:13:00,0.156,0.0,0.105,0.005
08/06/2022,06:15:00,0.151,0.0,0.111,0.006
08/06/2022,06:17:01,0.154,0.0,0.116,0.005
08/06/2022,06:19:00,0.150,0.0,0.121,0.005
08/06/2022,06:21:00,0.155,0.0,0.126,0.005
08/06/2022,06:23:00,0.163,0.0,0.131,0.005
08/06/2022,06:25:01,0.177,0.0,0.137,0.006
08/06/2022,06:27:01,0.203,0.0,0.143,0.006
08/06/2022,06:29:37,0.212,0.0,0.153,0.01
08/06/2022,06:32:01,0.220,1.0,0.161,0.008
08/06/2022,06:34:01,0.227,1.0,0.169,0.008
08/06/2022,06:36:01,0.233,1.0,0.176,0.007
08/06/2022,06:38:01,0.242,1.0,0.184,0.008
08/06/2022,06:40:01,0.250,1.0,0.192,0.008
08/06/2022,06:42:00,0.257,1.0,0.201,0.009
08/06/2022,06:44:00,0.263,1.0,0.209,0.008
08/06/2022,06:46:01,0.271,1.0,0.218,0.009
08/06/2022,06:48:01,0.274,1.0,0.227,0.009
08/06/2022,06:50:01,0.242,1.0,0.235,0.008
08/06/2022,06:52:01,0.302,1.0,0.244,0.009
08/06/2022,06:54:01,0.312,1.0,0.254,0.01
08/06/2022,06:56:01,0.297,1.0,0.265,0.011
08/06/2022,06:58:01,0.332,1.0,0.276,0.011
08/06/2022,07:00:09,0.344,1.0,0.287,0.011
08/06/2022,07:02:01,0.351,1.0,0.298,0.011
08/06/2022,07:04:01,0.354,1.0,0.309,0.011
08/06/2022,07:06:00,0.372,1.0,0.321,0.012
08/06/2022,07:08:00,0.352,1.0,0.334,0.013
08/06/2022,07:10:11,0.349,1.0,0.347,0.013
08/06/2022,07:12:00,0.364,1.0,0.358,0.011
08/06/2022,07:14:01,0.369,1.0,0.371,0.013
08/06/2022,07:16:01,0.427,1.0,0.384,0.013
08/06/2022,07:18:01,0.430,1.0,0.399,0.015
08/06/2022,07:20:00,0.452,1.0,0.414,0.015
08/06/2022,07:22:09,0.474,1.0,0.43,0.016
08/06/2022,07:24:01,0.486,1.0,0.444,0.014
08/06/2022,07:26:01,0.505,1.0,0.46,0.016
08/06/2022,07:28:01,0.398,1.0,0.476,0.016
08/06/2022,07:30:01,0.531,1.0,0.491,0.015
08/06/2022,07:31:47,0.419,1.0,0.505,0.014
08/06/2022,07:34:03,0.481,1.0,0.52,0.015
08/06/2022,07:36:00,0.561,1.0,0.533,0.013
08/06/2022,07:38:09,0.578,1.0,0.552,0.019
08/06/2022,07:40:00,0.594,1.0,0.57,0.018
08/06/2022,07:42:01,0.613,1.0,0.59,0.02
08/06/2022,07:44:01,0.628,1.0,0.611,0.021
08/06/2022,07:46:03,0.650,1.0,0.632,0.021
08/06/2022,07:48:01,0.668,2.0,0.652,0.02
08/06/2022,07:50:01,0.510,1.0,0.671,0.019
08/06/2022,07:51:51,0.481,1.0,0.685,0.014
08/06/2022,07:54:11,0.375,1.0,0.702,0.017
08/06/2022,07:56:09,0.480,1.0,0.715,0.013
08/06/2022,07:58:01,0.454,1.0,0.728,0.013
08/06/2022,08:00:01,0.483,1.0,0.745,0.017
08/06/2022,08:02:01,0.807,2.0,0.769,0.024
08/06/2022,08:04:01,0.555,1.0,0.792,0.023
08/06/2022,08:06:01,0.713,2.0,0.811,0.019
08/06/2022,08:08:01,0.485,1.0,0.832,0.021
08/06/2022,08:10:00,0.819,2.0,0.855,0.023
08/06/2022,08:12:01,0.858,2.0,0.883,0.028
08/06/2022,08:14:01,0.720,2.0,0.909,0.026
08/06/2022,08:16:01,0.369,1.0,0.922,0.013
08/06/2022,08:18:00,0.525,1.0,0.937,0.015
08/06/2022,08:20:00,0.712,2.0,0.959,0.022
08/06/2022,08:22:01,1.000,2.0,0.99,0.031
08/06/2022,08:24:09,0.599,1.0,1.018,0.028
08/06/2022,08:26:01,0.515,1.0,1.035,0.017
08/06/2022,08:28:00,0.615,1.0,1.054,0.019
08/06/2022,08:30:01,0.772,2.0,1.084,0.03
08/06/2022,08:32:01,0.699,2.0,1.114,0.03
08/06/2022,08:34:01,0.895,2.0,1.139,0.025
08/06/2022,08:36:01,0.714,2.0,1.163,0.024
08/06/2022,08:38:00,1.069,2.0,1.198,0.035
08/06/2022,08:40:10,1.148,3.0,1.238,0.04
08/06/2022,08:42:01,0.873,2.0,1.272,0.034
08/06/2022,08:44:01,0.691,2.0,1.296,0.024
08/06/2022,08:46:01,0.769,2.0,1.325,0.029
08/06/2022,08:48:01,0.634,1.0,1.351,0.026
08/06/2022,08:50:01,0.685,2.0,1.374,0.023
08/06/2022,08:52:14,1.128,3.0,1.404,0.03
08/06/2022,08:54:08,0.598,1.0,1.427,0.023
08/06/2022,08:56:00,0.634,1.0,1.445,0.018
08/06/2022,08:58:01,0.513,1.0,1.467,0.022
08/06/2022,09:00:03,0.530,1.0,1.484,0.017
08/06/2022,09:02:01,0.618,1.0,1.503,0.019
08/06/2022,09:04:01,0.686,2.0,1.524,0.021
08/06/2022,09:06:01,0.602,1.0,1.548,0.024
08/06/2022,09:08:10,1.379,3.0,1.578,0.03
08/06/2022,09:10:01,1.444,3.0,1.621,0.043
08/06/2022,09:12:01,1.376,3.0,1.667,0.046
08/06/2022,09:14:01,1.495,3.0,1.711,0.044
08/06/2022,09:16:01,1.510,3.0,1.752,0.041
08/06/2022,09:18:03,1.566,4.0,1.801,0.049
08/06/2022,09:20:01,1.249,3.0,1.847,0.046
08/06/2022,09:22:01,1.583,4.0,1.898,0.051
08/06/2022,09:24:01,1.316,3.0,1.937,0.039
08/06/2022,09:26:09,1.407,3.0,1.987,0.05
08/06/2022,09:28:01,1.670,4.0,2.03,0.043
08/06/2022,09:30:00,1.597,4.0,2.084,0.054
08/06/2022,09:32:01,1.069,2.0,2.129,0.045
08/06/2022,09:34:01,1.526,4.0,2.177,0.048
08/06/2022,09:36:25,1.531,4.0,2.227,0.05
08/06/2022,09:38:08,0.967,2.0,2.267,0.04
08/06/2022,09:40:01,0.902,2.0,2.295,0.028
08/06/2022,09:42:01,1.001,2.0,2.327,0.032
08/06/2022,09:44:01,1.848,4.0,2.377,0.05
08/06/2022,09:46:01,1.762,4.0,2.437,0.06
08/06/2022,09:48:01,1.280,3.0,2.495,0.058
08/06/2022,09:50:01,1.163,3.0,2.545,0.05
08/06/2022,09:52:01,1.275,3.0,2.587,0.042
08/06/2022,09:54:09,1.210,3.0,2.64,0.053
08/06/2022,09:56:00,1.223,3.0,2.68,0.04
08/06/2022,09:58:02,1.939,4.0,2.738,0.058
08/06/2022,10:00:01,1.975,5.0,2.802,0.064
08/06/2022,10:02:01,2.043,5.0,2.867,0.065
08/06/2022,10:04:01,1.323,3.0,2.916,0.049
08/06/2022,10:06:01,1.055,2.0,2.958,0.042
08/06/2022,10:08:01,0.666,2.0,2.986,0.028
08/06/2022,10:10:01,0.518,1.0,3.006,0.02
08/06/2022,10:12:09,0.354,1.0,3.021,0.015
08/06/2022,10:14:01,0.333,1.0,3.031,0.01
08/06/2022,10:16:01,0.643,1.0,3.047,0.016
08/06/2022,10:17:51,0.849,2.0,3.074,0.027
08/06/2022,10:20:03,0.755,2.0,3.103,0.029
08/06/2022,10:22:01,0.880,2.0,3.13,0.027
08/06/2022,10:24:01,1.011,2.0,3.162,0.032
08/06/2022,10:26:01,1.437,3.0,3.204,0.042
08/06/2022,10:28:00,1.398,3.0,3.251,0.047
08/06/2022,10:30:01,2.275,5.0,3.308,0.057
08/06/2022,10:32:01,1.642,4.0,3.36,0.052
08/06/2022,10:34:01,1.052,2.0,3.399,0.039
08/06/2022,10:36:01,1.174,3.0,3.435,0.036
08/06/2022,10:38:01,1.206,3.0,3.474,0.039
08/06/2022,10:40:01,1.156,3.0,3.514,0.04
08/06/2022,10:42:01,1.583,4.0,3.563,0.049
08/06/2022,10:44:01,1.340,3.0,3.609,0.046
08/06/2022,10:46:16,1.408,3.0,3.667,0.058
08/06/2022,10:48:09,1.168,3.0,3.713,0.046
08/06/2022,10:50:01,1.385,3.0,3.751,0.038
08/06/2022,10:52:01,1.373,3.0,3.804,0.053
08/06/2022,10:54:01,1.809,4.0,3.856,0.052
08/06/2022,10:56:01,1.551,4.0,3.907,0.051
08/06/2022,10:58:01,2.449,6.0,3.983,0.076
08/06/2022,11:00:01,2.587,6.0,4.054,0.071
08/06/2022,11:02:01,2.525,6.0,4.136,0.082
08/06/2022,11:04:01,1.593,4.0,4.218,0.082
08/06/2022,11:06:09,2.079,5.0,4.301,0.083
08/06/2022,11:08:01,2.330,5.0,4.365,0.064
08/06/2022,11:10:01,2.503,6.0,4.448,0.083
08/06/2022,11:12:02,2.506,6.0,4.527,0.079
08/06/2022,11:14:01,2.605,6.0,4.599,0.072
08/06/2022,11:16:01,2.424,6.0,4.676,0.077
08/06/2022,11:18:14,2.476,6.0,4.753,0.077
08/06/2022,11:20:01,1.841,4.0,4.818,0.065
08/06/2022,11:22:01,1.434,3.0,4.872,0.054
08/06/2022,11:24:34,1.126,3.0,4.928,0.056
08/06/2022,11:27:02,0.977,2.0,4.971,0.043
08/06/2022,11:29:01,0.871,2.0,5.002,0.031
08/06/2022,11:31:01,0.809,2.0,5.029,0.027
08/06/2022,11:33:03,0.899,2.0,5.057,0.028
08/06/2022,11:35:01,1.212,3.0,5.092,0.035
08/06/2022,11:37:02,2.350,5.0,5.148,0.056
08/06/2022,11:39:02,1.915,4.0,5.225,0.077
08/06/2022,11:41:01,1.596,4.0,5.289,0.064
08/06/2022,11:43:01,1.576,4.0,5.349,0.06
08/06/2022,11:45:10,1.424,3.0,5.408,0.059
08/06/2022,11:47:01,1.108,3.0,5.447,0.039
08/06/2022,11:49:01,0.890,2.0,5.48,0.033
08/06/2022,11:51:01,0.829,2.0,5.508,0.028
08/06/2022,11:53:02,0.815,2.0,5.536,0.028
08/06/2022,11:55:01,0.871,2.0,5.563,0.027
08/06/2022,11:57:02,0.973,2.0,5.594,0.031
08/06/2022,11:59:01,1.054,2.0,5.628,0.034
08/06/2022,12:01:01,1.177,3.0,5.665,0.037
08/06/2022,12:03:10,1.282,3.0,5.709,0.044
08/06/2022,12:05:01,1.205,3.0,5.747,0.038
08/06/2022,12:07:01,1.079,2.0,5.786,0.039
08/06/2022,12:09:01,0.963,2.0,5.819,0.033
08/06/2022,12:11:01,0.956,2.0,5.851,0.032
08/06/2022,12:13:01,1.186,3.0,5.886,0.035
08/06/2022,12:15:01,1.423,3.0,5.931,0.045
08/06/2022,12:17:01,1.419,3.0,5.978,0.047
08/06/2022,12:19:01,1.494,3.0,6.027,0.049
08/06/2022,12:21:09,1.741,4.0,6.085,0.058
08/06/2022,12:23:02,2.213,5.0,6.138,0.053
08/06/2022,12:25:01,1.569,4.0,6.199,0.061
08/06/2022,12:27:01,1.410,3.0,6.261,0.062
08/06/2022,12:29:01,1.293,3.0,6.307,0.046
08/06/2022,12:31:01,1.291,3.0,6.35,0.043
08/06/2022,12:33:02,1.574,4.0,6.4,0.05
08/06/2022,12:35:01,1.423,3.0,6.473,0.073
08/06/2022,12:37:02,2.315,5.0,6.546,0.073
08/06/2022,12:39:01,0.948,2.0,6.591,0.045
08/06/2022,12:41:01,0.803,2.0,6.62,0.029
08/06/2022,12:43:02,0.622,1.0,6.644,0.024
08/06/2022,12:45:01,0.519,1.0,6.662,0.018
08/06/2022,12:47:01,0.493,1.0,6.679,0.017
08/06/2022,12:49:01,0.495,1.0,6.696,0.017
08/06/2022,12:51:02,0.580,1.0,6.713,0.017
08/06/2022,12:53:10,1.524,4.0,6.746,0.033
08/06/2022,12:55:01,2.327,5.0,6.802,0.056
08/06/2022,12:57:01,2.295,5.0,6.878,0.076
08/06/2022,12:59:01,1.195,3.0,6.937,0.059
08/06/2022,13:01:01,0.892,2.0,6.975,0.038
08/06/2022,13:03:01,0.698,2.0,7.001,0.026
08/06/2022,13:05:02,0.920,2.0,7.031,0.03
08/06/2022,13:07:01,0.831,2.0,7.06,0.029
08/06/2022,13:09:01,0.910,2.0,7.088,0.028
08/06/2022,13:11:09,1.178,3.0,7.135,0.047
08/06/2022,13:13:01,2.128,5.0,7.174,0.039
08/06/2022,13:15:01,2.220,5.0,7.233,0.059
08/06/2022,13:17:01,1.225,3.0,7.277,0.044
08/06/2022,13:19:01,1.421,3.0,7.327,0.05
08/06/2022,13:21:01,1.055,2.0,7.367,0.04
08/06/2022,13:23:01,0.848,2.0,7.4,0.033
08/06/2022,13:25:01,1.148,3.0,7.428,0.028
08/06/2022,13:27:02,1.944,4.0,7.485,0.057
08/06/2022,13:29:09,2.053,5.0,7.554,0.069
08/06/2022,13:31:01,2.167,5.0,7.619,0.065
08/06/2022,13:32:52,2.182,5.0,7.687,0.068
08/06/2022,13:35:02,2.194,5.0,7.766,0.079
08/06/2022,13:37:01,2.160,5.0,7.838,0.072
08/06/2022,13:39:02,1.958,5.0,7.902,0.064
08/06/2022,13:41:01,2.039,5.0,7.966,0.064
08/06/2022,13:43:01,2.111,5.0,8.035,0.069
08/06/2022,13:45:04,1.096,3.0,8.095,0.06
08/06/2022,13:47:02,1.136,3.0,8.13,0.035
08/06/2022,13:49:01,2.086,5.0,8.186,0.056
08/06/2022,13:51:02,2.053,5.0,8.254,0.068
08/06/2022,13:53:01,2.043,5.0,8.307,0.053
08/06/2022,13:55:02,1.961,5.0,8.364,0.057
08/06/2022,13:57:02,1.936,4.0,8.425,0.061
08/06/2022,13:59:02,1.992,5.0,8.487,0.062
08/06/2022,14:01:01,1.963,5.0,8.554,0.067
08/06/2022,14:03:02,1.920,4.0,8.618,0.064
08/06/2022,14:05:01,1.920,4.0,8.683,0.065
08/06/2022,14:07:01,1.936,4.0,8.747,0.064
08/06/2022,14:09:02,1.919,4.0,8.811,0.064
08/06/2022,14:11:02,1.876,4.0,8.874,0.063
08/06/2022,14:13:01,1.866,4.0,8.935,0.061
08/06/2022,14:15:02,1.860,4.0,8.999,0.064
08/06/2022,14:17:01,1.848,4.0,9.057,0.058
08/06/2022,14:19:02,1.612,4.0,9.116,0.059
08/06/2022,14:21:02,1.728,4.0,9.175,0.059
08/06/2022,14:23:02,1.658,4.0,9.231,0.056
08/06/2022,14:25:01,0.800,2.0,9.269,0.038
08/06/2022,14:27:01,0.920,2.0,9.299,0.03
08/06/2022,14:29:02,0.804,2.0,9.333,0.034
08/06/2022,14:31:01,0.645,1.0,9.356,0.023
08/06/2022,14:33:10,0.624,1.0,9.379,0.023
08/06/2022,14:35:02,0.610,1.0,9.398,0.019
08/06/2022,14:37:02,0.631,1.0,9.419,0.021
08/06/2022,14:39:02,0.589,1.0,9.439,0.02
08/06/2022,14:41:01,0.650,1.0,9.46,0.021
08/06/2022,14:43:02,0.667,2.0,9.482,0.022
08/06/2022,14:45:10,0.618,1.0,9.505,0.023
08/06/2022,14:47:01,0.745,2.0,9.531,0.026
08/06/2022,14:49:01,0.858,2.0,9.563,0.032
08/06/2022,14:51:01,0.809,2.0,9.593,0.03
08/06/2022,14:53:01,0.880,2.0,9.625,0.032
08/06/2022,14:55:01,0.833,2.0,9.652,0.027
08/06/2022,14:57:01,0.936,2.0,9.694,0.042
08/06/2022,14:59:02,1.434,3.0,9.731,0.037
08/06/2022,15:01:01,0.803,2.0,9.767,0.036
08/06/2022,15:03:01,1.251,3.0,9.803,0.036
08/06/2022,15:05:02,0.777,2.0,9.833,0.03
08/06/2022,15:07:02,0.752,2.0,9.859,0.026
08/06/2022,15:09:02,0.733,2.0,9.883,0.024
08/06/2022,15:11:01,0.876,2.0,9.916,0.033
08/06/2022,15:13:02,1.012,2.0,9.948,0.032
08/06/2022,15:15:02,0.878,2.0,9.979,0.031
08/06/2022,15:17:01,0.801,2.0,10.011,0.032
08/06/2022,15:19:01,1.270,3.0,10.046,0.035
08/06/2022,15:21:01,1.248,3.0,10.088,0.042
08/06/2022,15:23:02,1.210,3.0,10.127,0.039
08/06/2022,15:25:02,1.217,3.0,10.168,0.041
08/06/2022,15:27:10,1.174,3.0,10.21,0.042
08/06/2022,15:29:01,1.152,3.0,10.245,0.035
08/06/2022,15:31:02,1.136,3.0,10.284,0.039
08/06/2022,15:33:02,0.731,2.0,10.314,0.03
08/06/2022,15:35:02,1.068,2.0,10.347,0.033
08/06/2022,15:37:02,0.714,2.0,10.374,0.027
08/06/2022,15:39:01,0.740,2.0,10.405,0.031
08/06/2022,15:41:01,1.028,2.0,10.437,0.032
08/06/2022,15:43:02,0.757,2.0,10.465,0.028
08/06/2022,15:45:02,0.891,2.0,10.494,0.029
08/06/2022,15:47:02,0.947,2.0,10.518,0.024
08/06/2022,15:49:01,0.955,2.0,10.55,0.032
08/06/2022,15:51:10,0.946,2.0,10.584,0.034
08/06/2022,15:53:02,0.916,2.0,10.613,0.029
08/06/2022,15:55:02,0.898,2.0,10.643,0.03
08/06/2022,15:57:11,0.891,2.0,10.674,0.031
08/06/2022,15:59:01,0.877,2.0,10.701,0.027
08/06/2022,16:01:01,0.849,2.0,10.73,0.029
08/06/2022,16:03:02,0.824,2.0,10.758,0.028
08/06/2022,16:05:02,0.812,2.0,10.785,0.027
08/06/2022,16:07:01,0.795,2.0,10.812,0.027
08/06/2022,16:09:10,0.768,2.0,10.84,0.028
08/06/2022,16:11:02,0.746,2.0,10.863,0.023
08/06/2022,16:13:02,0.745,2.0,10.888,0.025
08/06/2022,16:15:02,0.723,2.0,10.913,0.025
08/06/2022,16:17:02,0.712,2.0,10.937,0.024
08/06/2022,16:19:02,0.694,2.0,10.96,0.023
08/06/2022,16:21:02,0.680,2.0,10.983,0.023
08/06/2022,16:23:02,0.659,2.0,11.005,0.022
08/06/2022,16:25:01,0.642,1.0,11.027,0.022
08/06/2022,16:27:01,0.643,1.0,11.048,0.021
08/06/2022,16:29:01,0.633,1.0,11.07,0.022
08/06/2022,16:31:01,0.615,1.0,11.09,0.02
08/06/2022,16:33:01,0.601,1.0,11.111,0.021
08/06/2022,16:35:01,0.582,1.0,11.13,0.019
08/06/2022,16:37:02,0.574,1.0,11.15,0.02
08/06/2022,16:39:02,0.565,1.0,11.169,0.019
08/06/2022,16:41:01,0.550,1.0,11.187,0.018
08/06/2022,16:43:02,0.536,1.0,11.205,0.018
08/06/2022,16:45:01,0.522,1.0,11.223,0.018
08/06/2022,16:47:02,0.511,1.0,11.24,0.017
08/06/2022,16:49:01,0.498,1.0,11.257,0.017
08/06/2022,16:51:01,0.485,1.0,11.273,0.016
08/06/2022,16:53:02,0.474,1.0,11.289,0.016
08/06/2022,16:55:10,0.460,1.0,11.306,0.017
08/06/2022,16:57:02,0.447,1.0,11.32,0.014
08/06/2022,16:59:01,0.439,1.0,11.335,0.015
08/06/2022,17:01:01,0.426,1.0,11.349,0.014
08/06/2022,17:03:01,0.415,1.0,11.363,0.014
08/06/2022,17:05:02,0.406,1.0,11.377,0.014
08/06/2022,17:07:02,0.393,1.0,11.39,0.013
08/06/2022,17:09:01,0.383,1.0,11.403,0.013
08/06/2022,17:11:02,0.370,1.0,11.416,0.013
08/06/2022,17:13:02,0.356,1.0,11.428,0.012
08/06/2022,17:15:10,0.344,1.0,11.44,0.012
08/06/2022,17:17:02,0.337,1.0,11.451,0.011
08/06/2022,17:19:02,0.283,1.0,11.462,0.011
08/06/2022,17:21:02,0.260,1.0,11.471,0.009
08/06/2022,17:23:02,0.266,1.0,11.479,0.008
08/06/2022,17:25:01,0.252,1.0,11.488,0.009
08/06/2022,17:27:02,0.294,1.0,11.497,0.009
08/06/2022,17:29:02,0.285,1.0,11.507,0.01
08/06/2022,17:31:01,0.268,1.0,11.516,0.009
08/06/2022,17:33:02,0.254,1.0,11.525,0.009
08/06/2022,17:35:01,0.250,1.0,11.533,0.008
08/06/2022,17:37:02,0.242,1.0,11.541,0.008
08/06/2022,17:39:01,0.235,1.0,11.549,0.008
08/06/2022,17:41:10,0.198,0.0,11.557,0.008
08/06/2022,17:43:02,0.196,0.0,11.563,0.006
08/06/2022,17:45:02,0.186,0.0,11.57,0.007
08/06/2022,17:47:02,0.185,0.0,11.576,0.006
08/06/2022,17:49:02,0.197,0.0,11.582,0.006
08/06/2022,17:51:02,0.193,0.0,11.589,0.007
08/06/2022,17:53:02,0.167,0.0,11.595,0.006
08/06/2022,17:55:01,0.177,0.0,11.6,0.005
08/06/2022,17:57:02,0.175,0.0,11.606,0.006
08/06/2022,17:59:02,0.169,0.0,11.612,0.006
08/06/2022,18:01:02,0.160,0.0,11.617,0.005
08/06/2022,18:03:02,0.142,0.0,11.622,0.005
08/06/2022,18:05:01,0.133,0.0,11.627,0.005
08/06/2022,18:07:15,0.123,0.0,11.632,0.005
08/06/2022,18:09:01,0.118,0.0,11.635,0.003
08/06/2022,18:11:02,0.118,0.0,11.639,0.004
08/06/2022,18:13:02,0.115,0.0,11.643,0.004
08/06/2022,18:15:02,0.112,0.0,11.647,0.004
08/06/2022,18:17:02,0.104,0.0,11.651,0.004
08/06/2022,18:19:10,0.097,0.0,11.654,0.003
08/06/2022,18:21:02,0.088,0.0,11.657,0.003
08/06/2022,18:23:02,0.082,0.0,11.66,0.003
08/06/2022,18:25:01,0.074,0.0,11.662,0.002
08/06/2022,18:27:02,0.063,0.0,11.665,0.003
08/06/2022,18:29:02,0.039,0.0,11.667,0.002
08/06/2022,18:31:02,0.017,0.0,11.667,0.0
08/06/2022,18:33:02,0.009,0.0,11.668,0.001
08/06/2022,18:35:02,0.005,0.0,11.668,0.0
08/06/2022,18:37:02,0.007,0.0,11.668,0.0
08/06/2022,18:39:02,0.009,0.0,11.668,0.0
08/06/2022,18:41:02,0.011,0.0,11.669,0.001
08/06/2022,18:43:02,0.009,0.0,11.669,0.0
08/06/2022,18:45:10,0.008,0.0,11.669,0.0
08/06/2022,18:47:02,0.006,0.0,11.669,0.0
08/06/2022,18:49:02,0.006,0.0,11.67,0.001
08/06/2022,18:51:10,0.007,0.0,11.67,0.0
08/06/2022,18:53:02,0.008,0.0,11.67,0.0
08/06/2022,18:55:00,0.009,0.0,11.67,0.0
08/06/2022,18:57:02,0.009,0.0,11.671,0.001
08/06/2022,18:59:02,0.009,0.0,11.671,0.0
08/06/2022,19:01:02,0.010,0.0,11.671,0.0
08/06/2022,19:03:02,0.014,0.0,11.671,0.0
08/06/2022,19:05:02,0.018,0.0,11.672,0.001
08/06/2022,19:07:02,0.023,0.0,11.673,0.001
08/06/2022,19:09:02,0.024,0.0,11.673,0.0
08/06/2022,19:11:01,0.025,0.0,11.674,0.001
08/06/2022,19:13:02,0.024,0.0,11.675,0.001
08/06/2022,19:15:01,0.021,0.0,11.676,0.001
08/06/2022,19:17:02,0.019,0.0,11.677,0.001
08/06/2022,19:19:02,0.017,0.0,11.677,0.0
08/06/2022,19:21:02,0.012,0.0,11.678,0.001
08/06/2022,19:23:02,0.009,0.0,11.678,0.0
08/06/2022,19:25:02,0.007,0.0,11.678,0.0
08/06/2022,19:27:03,0.008,0.0,11.678,0.0
08/06/2022,19:29:10,0.009,0.0,11.679,0.001
08/06/2022,19:31:02,0.009,0.0,11.679,0.0
08/06/2022,19:33:02,0.009,0.0,11.679,0.0